This demonstration page uses our WeatherBlox Daily Observations layout. Learn more.

Left ArrowRight Arrow

Hourly Observations for August 4, 2019

Temp ( °F °C ) Dew Point ( °F °C ) Humidity (%) Winds ( mph kmh ) Pressure ( in mb ) Visibility ( mi km ) Precip ( " mm )
12:53 am 00:53 Clear 85 29.4 56 13.3 37 37 ENE 12 19 29.84 1010 10 16 0.00 0.00
1:53 am 01:53 Mostly Clear 85 29.4 56 13.3 37 37 NE 13 20 29.83 1010 10 16 0.00 0.00
2:53 am 02:53 Mostly Clear 83 28.3 59 15 44 44 NE 13 20 29.84 1011 10 16 0.00 0.00
3:53 am 03:53 Clear 82 27.8 60 15.6 47 47 ENE 13 20 29.84 1011 10 16 0.00 0.00
4:53 am 04:53 Clear 80 26.7 62 16.7 54 54 N 10 17 29.85 1011 10 16 0.00 0.00
5:53 am 05:53 Clear 78 25.6 63 17.2 60 60 NNE 8 13 29.86 1011 10 16 0.00 0.00
6:53 am 06:53 Mostly Cloudy 78 25.6 64 17.8 62 62 NNE 6 9 29.88 1012 10 16 0.00 0.00
7:53 am 07:53 Cloudy 79 26.1 65 18.3 62 62 NNE 12 19 29.91 1013 10 16 0.00 0.00
8:53 am 08:53 Mostly Sunny 81 27.2 65 18.3 58 58 NE 8 13 29.94 1014 10 16 0.00 0.00
9:53 am 09:53 Sunny 86 30 65 18.3 49 49 ENE 7 11 29.93 1014 10 16 0.00 0.00
10:53 am 10:53 Sunny 88 31.1 63 17.2 43 43 ENE 6 9 29.93 1014 10 16 0.00 0.00
11:53 am 11:53 Sunny 93 33.9 61 16.1 34 34 ESE 8 13 29.92 1013 10 16 0.00 0.00
12:53 pm 12:53 Sunny 95 35 60 15.6 31 31 E 13 20 29.90 1013 10 16 0.00 0.00
1:53 pm 13:53 Mostly Sunny 96 35.6 56 13.3 26 26 ENE 13 20 29.87 1012 10 16 0.00 0.00
2:53 pm 14:53 Sunny 99 37.2 48 8.9 18 18 ENE 14 22 29.85 1011 10 16 0.00 0.00
3:53 pm 15:53 Sunny 99 37.2 48 8.9 18 18 ENE 12 19 29.84 1011 10 16 0.00 0.00
4:53 pm 16:53 Sunny 97 36.1 47 8.3 18 18 ENE 9 15 29.83 1010 10 16 0.00 0.00
5:53 pm 17:53 Sunny 99 37.2 44 6.7 15 15 NE 12 19 29.82 1010 10 16 0.00 0.00
6:53 pm 18:53 Sunny 99 37.2 47 8.3 17 17 ENE 12 19 29.81 1010 10 16 0.00 0.00
7:53 pm 19:53 Sunny 95 35 48 8.9 20 20 E 13 20 29.82 1010 10 16 0.00 0.00
8:53 pm 20:53 Clear 91 32.8 48 8.9 23 23 E 8 13 29.83 1010 10 16 0.00 0.00
9:53 pm 21:53 Clear 87 30.6 51 10.6 29 29 E 8 13 29.83 1010 10 16 0.00 0.00
10:53 pm 22:53 Clear 84 28.9 52 11.1 33 33 ENE 7 11 29.85 1011 10 16 0.00 0.00
11:53 pm 23:53 Clear 81 27.2 52 11.1 37 37 ENE 6 9 29.86 1011 10 16 0.00 0.00

Powered by AerisWeather